User: anonymous
Location: Key Biscayne
(25.6930°N, 80.1630°W)
Time: 07:17:34
(UTC-04:00)
Language:

CZ-2D R/B - Orbit

View from above orbital plane
View from above orbital plane
View from above satellite
View from above satellite

Ground track
Ground track

The orbit data is extracted from the following two-line orbital elements,

1 28738U 05024B   14243.41350633  .00001539  00000-0  10699-3 0  8331
2 28738 097.6257 278.0363 0011832 261.8283 098.1603 15.06954924501794
Epoch (UTC): 31 August 2014 09:55:26
Eccentricity: 0.0011832
inclination: 97.6257°
perigee height: 537 km
apogee height: 554 km
right ascension of ascending node: 278.0363°
argument of perigee: 261.8283°
revolutions per day: 15.06954924
mean anomaly at epoch: 98.1603°
orbit number at epoch: 50179

The dashed part of the orbit path shows where the satellite is in the earth's shadow,  

DLR